Location: Unspecified
(0.0000°N, 0.0000°E)
Time: 04:09:25
(UTC+00:00)

BREEZE-M R/B - Visible Passes

Search period start: 06 June 2026 00:00
Search period end: 16 June 2026 00:00
Orbit: 2841 x 63437 km, 28.4° (Epoch: 5 June)

Date Brightness Start Highest point End Pass type
(mag) Time Alt. Az. Time Alt. Az. Time Alt. Az.
6 Jun ? 00:49:58 10° ENE 03:24:59 25° ENE 04:51:55 10° ENE visible
7 Jun ? 05:49:05 10° WSW 06:12:41 11° WSW 06:40:05 10° WSW visible
8 Jun ? 03:11:41 41° WSW 03:59:44 45° WSW 08:15:57 10° W visible
8 Jun ? 23:39:30 10° SW 02:28:51 76° SSW 08:52:14 10° W visible
9 Jun ? 21:09:43 10° SW 22:41:11 45° ESE 09:21:43 10° W visible
10 Jun ? 18:40:11 10° WSW 18:52:58 38° S 09:54:00 10° WNW visible
11 Jun ? 21:49:32 10° E 04:03:14 81° N 14:08:13 10° ESE visible
12 Jun ? 22:24:34 10° E 04:32:16 76° N 11:39:29 10° E visible
13 Jun ? 22:54:49 10° E 05:06:44 68° NNE 09:08:50 10° ENE visible
14 Jun ? 23:30:04 10° ENE 04:24:49 49° NE 06:32:01 10° ENE visible
